WEATHER DATA

YESTERDAY
Time Temp. Dewp. Hum. Bar. 1h Prec. 24h Prec.
00:06 20.2 12.4 61 1016 0.0000 0.0000
00:16 20 12.3 61 1016.2 0.0000 0.0000
00:26 19.8 12.3 62 1016.3 0.0000 0.0000
00:36 19.4 12.2 63 1016.3 0.0000 0.0000
00:46 19.2 12.2 64 1016.3 0.0000 0.0000
00:57 19 12 64 1016.3 0.0000 0.0000
01:07 18.7 12 65 1016.2 0.0000 0.0000
01:17 18.5 11.8 65 1016.3 0.0000 0.0000
01:27 18.3 11.8 66 1016.3 0.0000 0.0000
01:37 18.1 11.7 66 1016.3 0.0000 0.0000
01:47 17.9 11.7 67 1016.2 0.0000 0.0000
01:57 17.7 11.5 67 1015.9 0.0000 0.0000
02:08 17.6 11.6 68 1015.8 0.0000 0.0000
02:18 17.4 11.4 68 1015.8 0.0000 0.0000
02:27 17.3 11.6 69 1015.7 0.0000 0.0000
02:37 17.2 11.5 69 1015.6 0.0000 0.0000
02:48 17 11.5 70 1015.6 0.0000 0.0000
02:58 16.9 11.4 70 1015.4 0.0000 0.0000
03:08 16.8 11.3 70 1015.5 0.0000 0.0000
03:18 16.7 11.2 70 1015.4 0.0000 0.0000
03:28 16.6 11.1 70 1015.4 0.0000 0.0000
03:38 16.5 11.2 71 1015.3 0.0000 0.0000
03:48 16.3 11 71 1015.3 0.0000 0.0000
03:59 16.2 10.9 71 1015.2 0.0000 0.0000
04:09 16.2 10.9 71 1015.2 0.0000 0.0000
04:18 16.1 11.1 72 1015.2 0.0000 0.0000
04:28 15.9 10.9 72 1015.1 0.0000 0.0000
04:39 15.8 11 73 1015.1 0.0000 0.0000
04:49 15.8 11 73 1015 0.0000 0.0000
04:59 15.7 10.9 73 1015 0.0000 0.0000
05:09 15.7 10.9 73 1015.1 0.0000 0.0000
05:19 15.6 10.8 73 1015.1 0.0000 0.0000
05:29 15.5 10.9 74 1015 0.0000 0.0000
05:39 15.5 10.9 74 1014.9 0.0000 0.0000
05:50 15.4 10.8 74 1014.9 0.0000 0.0000
06:00 15.4 10.8 74 1014.8 0.0000 0.0000
06:09 15.3 10.9 75 1014.8 0.0000 0.0000
06:20 15.3 10.9 75 1014.9 0.0000 0.0000
06:30 15.4 11.2 76 1014.7 0.0000 0.0000
06:40 15.5 11.3 76 1014.9 0.0000 0.0000
06:50 15.5 11.3 76 1014.9 0.0000 0.0000
07:01 15.7 11.3 75 1014.8 0.0000 0.0000
07:10 15.8 11.6 76 1014.8 0.0000 0.0000
07:20 15.9 11.7 76 1014.8 0.0000 0.0000
07:30 16 11.8 76 1014.8 0.0000 0.0000
07:41 16.2 12 76 1014.7 0.0000 0.0000
07:51 16.5 12.3 76 1014.7 0.0000 0.0000
08:01 16.8 12.3 75 1014.7 0.0000 0.0000
08:11 17 12.7 76 1014.7 0.0000 0.0000
08:21 17.4 13.1 76 1014.5 0.0000 0.0000
08:31 17.7 13.2 75 1014.6 0.0000 0.0000
08:41 18 13.3 74 1014.8 0.0000 0.0000
08:52 18.4 13.3 72 1014.9 0.0000 0.0000
09:01 18.7 13.3 71 1014.8 0.0000 0.0000
09:11 19 13.4 70 1014.9 0.0000 0.0000
09:22 19.4 13.6 69 1014.9 0.0000 0.0000
09:32 19.7 13.6 68 1014.8 0.0000 0.0000
09:42 20.1 14 68 1014.9 0.0000 0.0000
09:52 20.5 14.4 68 1014.9 0.0000 0.0000
10:02 20.9 14.5 67 1015 0.0000 0.0000
10:12 21.3 14.7 66 1015 0.0000 0.0000
10:22 21.7 14.8 65 1015 0.0000 0.0000
10:32 22.1 14.5 62 1014.8 0.0000 0.0000
10:43 22.5 14.9 62 1014.8 0.0000 0.0000
10:52 22.9 15.2 62 1014.6 0.0000 0.0000
11:02 23.2 15 60 1014.5 0.0000 0.0000
11:13 23.6 15.1 59 1014.5 0.0000 0.0000
11:23 24 15.2 58 1014.4 0.0000 0.0000
11:33 24.4 15.6 58 1014.6 0.0000 0.0000
11:43 24.8 15.7 57 1014.3 0.0000 0.0000
11:53 25.2 15.5 55 1014.4 0.0000 0.0000
12:03 25.6 15.6 54 1014.4 0.0000 0.0000
12:13 26 15.4 52 1014.3 0.0000 0.0000
12:24 26.4 15.5 51 1014.3 0.0000 0.0000
12:34 26.7 14.8 48 1014.3 0.0000 0.0000
12:43 26.9 14.3 46 1014.4 0.0000 0.0000
12:53 27.3 14.7 46 1014.2 0.0000 0.0000
13:14 27.6 14.9 46 1014.1 0.0000 0.0000
13:24 27.8 14.1 43 1014.2 0.0000 0.0000
13:34 27.8 14.4 44 1014.4 0.0000 0.0000
13:44 27.7 14.3 44 1014.4 0.0000 0.0000
13:54 27.5 14.5 45 1014.5 0.0000 0.0000
14:04 27.1 13.8 44 1014.2 0.0000 0.0000
14:15 26.5 13.3 44 1014.1 0.0000 0.0000
14:25 26.1 13.6 46 1014 0.0000 0.0000
14:34 25.9 14.1 48 1013.8 0.0000 0.0000
14:45 25.7 14.5 50 1013.9 0.0000 0.0000
14:55 26 14.5 49 1013.9 0.0000 0.0000
15:05 26.1 14.6 49 1013.8 0.0000 0.0000
15:15 26.4 14.8 49 1013.9 0.0000 0.0000
15:25 26.7 15.1 49 1013.7 0.0000 0.0000
15:35 26.9 15 48 1013.8 0.0000 0.0000
15:45 27.1 15.5 49 1013.8 0.0000 0.0000
15:55 27.5 15.5 48 1013.6 0.0000 0.0000
16:06 27.9 15.9 48 1013.5 0.0000 0.0000
16:16 28.1 15.7 47 1013.5 0.0000 0.0000
16:25 28.5 16.1 47 1013.5 0.0000 0.0000
16:36 28.8 15.7 45 1013.5 0.0000 0.0000
16:46 29 15.5 44 1013.4 0.0000 0.0000
16:56 29.3 15.8 44 1013.2 0.0000 0.0000
17:06 29.5 15.6 43 1013.1 0.0000 0.0000
17:16 29.4 15.5 43 1013.1 0.0000 0.0000
17:26 29.3 15.4 43 1013 0.0000 0.0000
17:35 29.3 15.4 43 1012.9 0.0000 0.0000
17:45 29.3 15.4 43 1012.8 0.0000 0.0000
17:55 29.3 15.4 43 1012.4 0.0000 0.0000
18:05 29.3 15.4 43 1012.5 0.0000 0.0000
18:16 29.3 15.1 42 1012.5 0.0000 0.0000
18:26 29.3 15.4 43 1012.3 0.0000 0.0000
18:35 29.2 15.3 43 1012.2 0.0000 0.0000
18:45 29.1 15.3 43 1012.3 0.0000 0.0000
18:56 29 15.5 44 1012.4 0.0000 0.0000
19:06 28.8 15.3 44 1012.3 0.0000 0.0000
19:16 28.7 15.6 45 1012.2 0.0000 0.0000
19:26 28.6 15.5 45 1012.2 0.0000 0.0000
19:36 28.5 15.4 45 1012.2 0.0000 0.0000
19:46 28.3 15.6 46 1012.3 0.0000 0.0000
19:56 28.1 15.4 46 1012.2 0.0000 0.0000
20:07 27.9 15.9 48 1012.2 0.0000 0.0000
20:17 27.7 16 49 1012.2 0.0000 0.0000
20:26 27.4 16.1 50 1012.2 0.0000 0.0000
20:37 27.1 15.8 50 1012.3 0.0000 0.0000
20:47 26.8 16.1 52 1012.3 0.0000 0.0000
20:57 26.6 16.2 53 1012.4 0.0000 0.0000
21:07 26.3 16 53 1012.3 0.0000 0.0000
21:18 26 15.7 53 1012.2 0.0000 0.0000
21:27 25.7 15.4 53 1012.2 0.0000 0.0000
21:37 25.5 15.5 54 1012 0.0000 0.0000
21:47 25.2 15.2 54 1012.1 0.0000 0.0000
21:58 25 15.1 54 1012.2 0.0000 0.0000
22:08 24.7 15.3 56 1012 0.0000 0.0000
22:17 24.5 15.2 56 1012.2 0.0000 0.0000
22:28 24.2 15.2 57 1012.3 0.0000 0.0000
22:38 24 15 57 1012.2 0.0000 0.0000
22:48 23.8 15 58 1012.3 0.0000 0.0000
22:58 23.5 15 59 1012.3 0.0000 0.0000
23:08 23.3 15.1 60 1012.3 0.0000 0.0000
23:18 23.1 14.9 60 1012.3 0.0000 0.0000
23:28 23 15.1 61 1012.4 0.0000 0.0000
23:39 22.8 14.6 60 1012.5 0.0000 0.0000
23:49 22.7 15.3 63 1013 0.0000 0.0000
23:58 22.4 15.3 64 1012.4 0.1010 0.1000

DAY STATISTIC

2018-07-20
TEMPERATURE
AVERAGE
22.5
HIGH
29.5
17:06
LOW
15.3
06:09
PRESSURE
AVERAGE
1014.1
HIGH
1016.3
00:26
LOW
1012.0
21:37
DEWPOINT
AVERAGE
13.8
HIGH
16.2
20:57
LOW
10.8
05:19
HUMIDITY
AVERAGE
59
HIGH
76
06:30
LOW
42
18:16
PRECIPITATION
RAIN HOUR
0.1
RAIN DAY
0.1
TEMPERATURE (°C)
LOW
15.3
HIGH
29.5
AVERAGE
22.5
PRESSURE (hpa)
LOW
1012.0
HIGH
1016.3
AVERAGE
1014.1
DEVICE